Home > Weather > Lausanne > Past weeks

Flag for Switzerland Past Weather in Lausanne, Vaud, Switzerland — Yesterday and Last 2 Weeks

Now
63 °F

Mild.


Feels Like: 63 °F
Forecast: 55 / 79 °F
Wind: 2 mph from Southwest

Location: Aigle

Current Time: Jun 29, 2016 at 12:43:27 AM

Latest Report: Jun 29, 2016 at 12:00 AM


Visibility: N/A

Pressure: 30.01 "Hg

Humidity: 87%

Dew Point: 59 °F

Location of LausanneLocation

Past Weather in Lausanne — Graph

°F

Lausanne Temperature Yesterday

Maximum temperature yesterday: 77 °F (at 6:00 PM)
Minimum temperature yesterday: 53 °F (at 5:00 AM)
Average temperature yesterday: 66 °F

High & Low Weather Summary for the Past Weeks

 TemperatureHumidityPressure
High87 °F (Jun 24, 5:00 PM)96% (Jun 19, 6:00 AM)30.27 "Hg (Jun 19, 6:00 AM)
Low50 °F (Jun 20, 6:00 AM)34% (Jun 24, 5:00 PM)29.56 "Hg (Jun 15, 7:00 PM)
Average64 °F76%30.00 "Hg
* Reported Jun 13 11:00 PM — Jun 28 11:00 PM, Lausanne, Weather by CustomWeather, © 2016

Note: Actual official high and low records may vary slightly from our data, if they occured in-between our weather recording intervals... More about our weather records

Advertising

Lausanne Weather History for the Previous 24 Hours

Scroll right to see more
 ConditionsComfort  
Time TempWeatherWind HumidityBarometerVisibility
11:00 PM
Tue, Jun 28
65 °FMild.3 mph80%30.01 "HgN/A
10:00 PM65 °FMild.No wind87%30.00 "HgN/A
9:00 PM70 °FMild.No wind77%29.98 "HgN/A
8:00 PM76 °FPartly sunny.2 mph52%29.95 "Hg19 mi
7:00 PM75 °FMild.1 mph54%29.95 "HgN/A
6:00 PM77 °FWarm.3 mph47%29.95 "HgN/A
5:00 PM76 °FMild.8 mph48%29.97 "HgN/A
4:00 PM76 °FMild.12 mph42%29.98 "HgN/A
3:00 PM75 °FMild.9 mph45%30.00 "HgN/A
2:00 PM74 °FMild.12 mph48%30.03 "HgN/A
1:00 PM71 °FMild.10 mph56%30.05 "HgN/A
12:00 PM71 °FMild.10 mph61%30.06 "HgN/A
11:00 AM68 °FMild.6 mph59%30.09 "HgN/A
10:00 AM67 °FMild.3 mph57%30.11 "HgN/A
9:00 AM64 °FMild.2 mph62%30.13 "HgN/A
8:00 AM61 °FPassing clouds.1 mph72%30.13 "Hg28 mi
7:00 AM55 °FCool.2 mph86%30.14 "HgN/A
6:00 AM54 °FCool.3 mph89%30.15 "HgN/A
5:00 AM53 °FClear.2 mph90%30.15 "Hg16 mi
4:00 AM54 °FCool.2 mph93%30.15 "HgN/A
3:00 AM55 °FCool.3 mph88%30.15 "HgN/A
2:00 AM59 °FCool.3 mph73%30.16 "HgN/A
1:00 AM57 °FCool.3 mph87%30.17 "HgN/A
12:00 AM59 °FCool.2 mph78%30.15 "HgN/A
Weather by CustomWeather, © 2016

See weather overviewHow to use our weather pages